[[{"header":{"parameterUnit":"m.s-1","parameterCategory":2,"la1":30.2991,"la2":30.254,"lo1":-89.0895,"lo2":-89.0444,"dx":0.0017,"dy":0.0017,"nx":28,"ny":28,"refTime":"2023-02-12T09:00:00:Z","depth":"0","parameterNumber":2,"parameterNumberName":"U-component_of_CURRENTS"},"data":[0,0,0,0,0,0,0,0,0,0,0,0,0,0,0,0,0,0,0,0,0,0,0,0,0,0,0,0,0,0,0,0,0,0,0,0,0,0,0,0,0,0,0,0,0,0,0,0,0,0,0,0,0,0,0,0,0,0,0.5826,0.5826,0,0.5865,0.5865,0.5865,0.5875,0.5875,0.5875,0.5875,0.5968,0.597,0.5972,0,0,0,0,0,0,0,0,0,0,0,0,0,0.5735,0.5737,0.5826,0.5827,0.5827,0.5865,0.5865,0.5865,0.5875,0.5875,0.5875,0.5875,0.5967,0.597,0.5972,0,0,0,0,0,0,0,0,0,0,0,0,0,0.5771,0.5737,0.5826,0.5839,0.5841,0.5865,0.5865,0.5866,0.5875,0.5875,0.5875,0.5875,0.5966,0.5969,0.5973,0.5994,0,0,0.5984,0.5985,0,0,0,0,0,0,0,0,0.5769,0.5774,0.5836,0.5838,0.584,0.5868,0.5867,0.5912,0.5875,0.5859,0.5875,0.5875,0.5941,0.5947,0.5949,0.5998,0.6002,0.5984,0.5986,0.5988,0.5989,0,0,0,0,0,0,0,0.5767,0.5772,0.5838,0.5837,0.584,0.5835,0.584,0.5875,0.5898,0.586,0.5862,0.5871,0.5942,0.5945,0.5951,0.6003,0.5984,0.5987,0.599,0.5991,0.6125,0.6126,0,0,0,0,0,0,0.577,0.577,0.5837,0.5839,0.5808,0.5837,0.5843,0.5856,0.5896,0.5903,0.5871,0.5872,0.5939,0.5947,0.5955,0.5966,0.5988,0.5991,0.5993,0.6124,0.6125,0.6127,0,0,0,0,0,0,0.5768,0.5776,0.5835,0.5808,0.5816,0.5839,0.5854,0.5857,0.5862,0.5905,0.5912,0.5873,0.5939,0.595,0.5994,0.597,0.5993,0.5996,0.6122,0.6124,0.6126,0.5999,0,0,0,0,0,0,0.5765,0.5775,0.5781,0.5809,0.5818,0.5844,0.5855,0.5858,0.5869,0.587,0.5909,0.5917,0.594,0.5988,0.5997,0.5976,0.5999,0.612,0.6123,0.6125,0.6002,0.5997,0.5992,0,0,0,0,0,0.5762,0.5761,0.5781,0.5789,0.5827,0.5844,0.5847,0.5862,0.5869,0.5866,0.5903,0.5916,0.6012,0.5992,0.6002,0.5981,0.6119,0.6122,0.6125,0.6004,0.5998,0.5993,0,0,0,0,0,0,0.5716,0.5763,0.5785,0.5798,0.5822,0.5847,0.5837,0.5861,0.5886,0.5885,0.5928,0.5939,0.5976,0.6012,0.5989,0.6037,0.607,0.6075,0.5974,0.5969,0.5965,0.5938,0.6002,0,0,0,0,0,0.5714,0.5723,0.5772,0.5775,0.5785,0.5814,0.5822,0.584,0.5868,0.5877,0.5904,0.5949,0.5998,0.6008,0.6058,0.6072,0.6129,0.6075,0.607,0.6065,0.6057,0.6143,0.6144,0.6137,0.6137,0.6137,0,0,0.5695,0.5721,0.5726,0.5766,0.5776,0.577,0.5816,0.5823,0.5815,0.5886,0.5874,0.5938,0.6007,0.6027,0.6045,0.6046,0.6098,0.6069,0.6064,0.6059,0.6146,0.6146,0.6146,0.6139,0.6139,0.6139,0,0,0.5642,0.5683,0.5668,0.5686,0.5714,0.5735,0.5739,0.5769,0.5778,0.5799,0.5854,0.5899,0.5957,0.5988,0.6018,0.6024,0.6085,0.6054,0.5981,0.6063,0.6063,0.6064,0.6121,0.6128,0.6032,0.6031,0.6031,0,0.5619,0.5611,0.5663,0.5648,0.5651,0.5713,0.5691,0.5708,0.5748,0.576,0.5782,0.5882,0.593,0.5963,0.5965,0.6004,0.6069,0.598,0.6051,0.6053,0.6056,0.6116,0.6125,0.6026,0.6026,0.6027,0.6028,0,0.5554,0.5549,0.5533,0.5538,0.555,0.5541,0.5583,0.5594,0.5623,0.5652,0.5703,0.5777,0.5839,0.5861,0.591,0.5954,0.6,0.6044,0.6047,0.6048,0.6112,0.6124,0.6018,0.602,0.6021,0.6023,0,0,0.5508,0.5492,0.5486,0.5458,0.5496,0.5486,0.5488,0.5509,0.5498,0.5557,0.5555,0.5646,0.5709,0.5752,0.5823,0.5876,0.5942,0.5959,0.5966,0.5984,0.6123,0.6099,0.611,0.6009,0.601,0.6012,0.6152,0,0.5441,0.5372,0.5399,0.533,0.5299,0.536,0.5348,0.538,0.5422,0.5435,0.5532,0.5574,0.5661,0.5697,0.5767,0.5918,0.5972,0.59,0.6149,0.6155,0.6108,0.6122,0.6015,0.6127,0.6164,0.6166,0.6167,0,0.5374,0.5335,0.5256,0.5216,0.521,0.5189,0.519,0.5195,0.5258,0.5298,0.5374,0.5464,0.5567,0.5636,0.5867,0.5828,0.5966,0.6066,0.6076,0.6104,0.6153,0.6142,0.6148,0.5941,0.6186,0.6185,0.6183,0,0.5291,0.5234,0.5158,0.5146,0.5121,0.5104,0.5108,0.5154,0.5157,0.5228,0.525,0.539,0.5467,0.5664,0.5886,0.5901,0.6124,0.6175,0.6271,0.6271,0.6252,0.6246,0.6059,0.6324,0.6324,0.6323,0.6323,0,0.5211,0.5144,0.5106,0.506,0.498,0.5012,0.4959,0.4994,0.5041,0.5041,0.5184,0.5225,0.5487,0.5647,0.5857,0.6093,0.6119,0.6259,0.6308,0.6205,0.6194,0.6074,0.5958,0.6328,0.6327,0.6326,0.6325,0,0.5115,0.5096,0.4995,0.4946,0.4934,0.4878,0.487,0.4843,0.4913,0.4926,0.4957,0.5126,0.5353,0.5589,0.5892,0.6045,0.6107,0.6343,0.6185,0.6212,0.6111,0.5994,0.5709,0.5563,0.6486,0.6486,0.6486,0,0.5047,0.4986,0.4899,0.4848,0.482,0.4761,0.4734,0.4779,0.4775,0.4871,0.4879,0.5073,0.5215,0.5616,0.5927,0.6257,0.6066,0.6311,0.6315,0.6068,0.5977,0.5709,0.5588,0.6245,0.6243,0.6242,0.6241,0,0.4913,0.4887,0.4811,0.4714,0.4658,0.4592,0.4571,0.4551,0.4619,0.4658,0.4736,0.4853,0.5238,0.5503,0.5904,0.6135,0.5976,0.6292,0.6088,0.5798,0.5444,0.5342,0.6166,0.6228,0.6229,0.623,0.6231,0.6231,0.4811,0.4735,0.4651,0.456,0.4493,0.4428,0.4363,0.4378,0.4374,0.4412,0.4576,0.4707,0.51,0.5672,0.5862,0.6024,0.5912,0.5963,0.5856,0.5617,0.5392,0.6163,0.6245,0.6246,0.6247,0.6248,0.6249,0,0.4666,0.4604,0.4507,0.438,0.4275,0.4297,0.4246,0.4188,0.4166,0.4258,0.4336,0.4629,0.4938,0.529,0.5639,0.5584,0.545,0.543,0.5021,0.4945,0.5713,0.562,0.5504,0.5504,0.5504,0.5505,0.5505,0.5505,0.4578,0.4452,0.4411,0.4205,0.4128,0.3982,0.3947,0.3904,0.3935,0.3944,0.4025,0.4161,0.4532,0.4906,0.5015,0.5024,0.4656,0.4489,0.438,0.4926,0.4966,0.5003,0.4885,0.4618,0.4616,0.3512,0.3503,0.3496]},{"header":{"parameterUnit":"m.s-1","parameterCategory":2,"la1":30.2991,"la2":30.254,"lo1":-89.0895,"lo2":-89.0444,"dx":0.0017,"dy":0.0017,"nx":28,"ny":28,"refTime":"2023-02-12T09:00:00:Z","depth":"0","parameterNumber":3,"parameterNumberName":"V-component_of_CURRENTS"},"data":[0,0,0,0,0,0,0,0,0,0,0,0,0,0,0,0,0,0,0,0,0,0,0,0,0,0,0,0,0,0,0,0,0,0,0,0,0,0,0,0,0,0,0,0,0,0,0,0,0,0,0,0,0,0,0,0,0,0,0.0051,0.0051,0,0.0061,0.0062,0.0062,0.0,-0.0002,-0.0004,-0.0006,0.0004,0.0006,0.0008,0,0,0,0,0,0,0,0,0,0,0,0,0,0.0029,0.003,0.0051,0.0051,0.005,0.0061,0.0062,0.0062,0.0001,-0.0002,-0.0005,-0.0007,0.0003,0.0005,0.0008,0,0,0,0,0,0,0,0,0,0,0,0,0,0.0043,0.003,0.0051,0.0018,0.0014,0.0061,0.0062,0.0063,0.0001,-0.0002,-0.0005,-0.0008,0.0002,0.0005,0.0009,0.0095,0,0,0.0019,0.002,0,0,0,0,0,0,0,0,0.0043,0.0045,0.0023,0.002,0.0016,0.0022,0.0057,0.0072,0.0002,0.0011,-0.0006,-0.001,0.0009,0.0012,0.0027,0.0095,0.0095,0.0019,0.0021,0.0023,0.0024,0,0,0,0,0,0,0,0.0042,0.0044,0.0059,0.0023,0.0019,0.002,0.0018,0.0061,0.0032,0.001,0.0004,-0.0,0.0008,0.0024,0.0027,0.0096,0.0019,0.0022,0.0024,0.0026,0.0292,0.0296,0,0,0,0,0,0,0.0033,0.0043,0.0059,0.0059,0.0017,0.0022,0.0021,0.0027,0.0031,0.0027,0.0002,-0.0003,0.002,0.0023,0.0027,0.0162,0.0023,0.0026,0.0028,0.0287,0.0293,0.0298,0,0,0,0,0,0,0.0033,0.0035,0.0058,0.0047,0.0049,0.0025,0.0034,0.0029,0.0045,0.0024,0.0021,0.0022,0.0018,0.0022,0.0107,0.016,0.0027,0.0031,0.0281,0.0288,0.0295,0.0412,0,0,0,0,0,0,0.0032,0.0035,0.0057,0.0047,0.005,0.0119,0.0036,0.0032,0.0045,0.0038,0.0041,0.0038,0.0015,0.0103,0.0111,0.0163,0.0033,0.0274,0.0284,0.0293,0.0402,0.0422,0.044,0,0,0,0,0,0.0032,0.0085,0.0058,0.006,0.0074,0.0122,0.0127,0.0099,0.0049,0.0094,0.01,0.0038,0.0167,0.0111,0.0119,0.0172,0.027,0.0281,0.0292,0.0393,0.0418,0.044,0,0,0,0,0,0,0.0099,0.0083,0.0053,0.01,0.0117,0.011,0.015,0.0119,0.0158,0.0148,0.0111,0.0114,0.0206,0.0197,0.0135,0.0284,0.0206,0.0219,0.028,0.0303,0.0322,0.0303,0.0036,0,0,0,0,0,0.012,0.0151,0.0136,0.0181,0.019,0.0171,0.0187,0.0169,0.0187,0.0198,0.0202,0.0221,0.0265,0.0286,0.0329,0.0419,0.0367,0.0461,0.048,0.0496,0.0493,0.0475,0.049,0.0335,0.0335,0.0335,0,0,0.0156,0.0154,0.017,0.0197,0.0203,0.0252,0.0176,0.0219,0.0262,0.0199,0.0286,0.0297,0.031,0.0407,0.0445,0.0398,0.0521,0.051,0.0523,0.0511,0.0488,0.0502,0.0514,0.0343,0.0341,0.034,0,0,0.0247,0.0247,0.0295,0.032,0.0337,0.0336,0.0351,0.0363,0.0373,0.046,0.0422,0.0469,0.0546,0.0557,0.057,0.0731,0.0629,0.0749,0.082,0.0805,0.0815,0.0823,0.0788,0.0792,0.0751,0.0751,0.0751,0,0.0284,0.0335,0.0326,0.0382,0.0405,0.0376,0.0435,0.0468,0.051,0.0528,0.0509,0.0607,0.0614,0.0695,0.0749,0.0767,0.0731,0.0719,0.0822,0.0829,0.0836,0.0797,0.08,0.0758,0.0757,0.0757,0.0756,0,0.0397,0.0443,0.0488,0.0533,0.0575,0.0631,0.0648,0.0699,0.0697,0.0704,0.079,0.0812,0.0846,0.0876,0.086,0.0928,0.0879,0.0845,0.0742,0.0857,0.0811,0.0812,0.0768,0.0766,0.0764,0.0762,0,0,0.0435,0.0538,0.0548,0.0582,0.0647,0.0685,0.078,0.0834,0.0867,0.0925,0.0972,0.1056,0.1023,0.1038,0.1023,0.1021,0.1043,0.0958,0.0954,0.0886,0.099,0.094,0.0935,0.1014,0.1015,0.1015,0.0941,0,0.0508,0.0629,0.0663,0.0776,0.0829,0.0847,0.0929,0.0978,0.1011,0.1068,0.1077,0.113,0.1098,0.1106,0.1108,0.1071,0.105,0.1065,0.0921,0.0917,0.0827,0.0937,0.094,0.0873,0.094,0.094,0.094,0,0.0579,0.0648,0.0766,0.086,0.0883,0.095,0.1027,0.1098,0.1167,0.1188,0.1227,0.1224,0.1263,0.1201,0.1169,0.1177,0.1091,0.1044,0.1039,0.0945,0.0869,0.0773,0.087,0.0625,0.094,0.094,0.094,0,0.0575,0.0707,0.0795,0.0834,0.0949,0.0995,0.1049,0.1125,0.1182,0.125,0.1288,0.1316,0.1331,0.1263,0.1193,0.1169,0.1129,0.1073,0.0939,0.0933,0.0884,0.0873,0.0693,0.1011,0.1011,0.1012,0.1012,0,0.062,0.0687,0.0797,0.0846,0.0941,0.1004,0.1097,0.1152,0.1235,0.1316,0.1334,0.1399,0.1344,0.1325,0.1225,0.1109,0.1147,0.0966,0.0922,0.0931,0.0925,0.0665,0.0527,0.1009,0.1009,0.101,0.1011,0,0.061,0.0687,0.0787,0.0908,0.0945,0.1007,0.1127,0.1197,0.1261,0.1366,0.1392,0.1462,0.1454,0.1381,0.1281,0.1148,0.0911,0.0967,0.0979,0.0938,0.0564,0.0435,0.0247,0.0168,0.0798,0.0797,0.0795,0,0.0621,0.0675,0.0814,0.0879,0.0937,0.1033,0.1111,0.1201,0.1283,0.1416,0.1477,0.1509,0.1581,0.1435,0.1234,0.1051,0.086,0.0856,0.0808,0.0554,0.0378,0.0324,0.0268,0.0791,0.079,0.0789,0.0788,0,0.0642,0.069,0.0785,0.0906,0.0998,0.1107,0.122,0.1287,0.1406,0.1506,0.164,0.171,0.1596,0.1484,0.1226,0.1055,0.069,0.0824,0.057,0.0368,0.0291,0.0192,0.0806,0.0779,0.078,0.0781,0.0781,0.0782,0.0657,0.0725,0.0847,0.0964,0.1067,0.1197,0.1294,0.1422,0.157,0.1775,0.1791,0.1981,0.1738,0.1429,0.1119,0.0554,0.0585,0.0374,0.0242,0.0214,0.0128,0.0712,0.0629,0.0629,0.0629,0.0629,0.0629,0,0.0698,0.0791,0.09,0.1057,0.1173,0.122,0.139,0.151,0.1703,0.194,0.2089,0.2162,0.1758,0.1321,0.0587,0.0102,-0.0042,-0.018,-0.0269,-0.0294,0.0228,0.0216,0.003,0.003,0.003,0.0031,0.0031,0.0031,0.0734,0.0861,0.0931,0.1135,0.1234,0.1404,0.151,0.1692,0.19,0.2237,0.2464,0.2626,0.2359,0.0868,-0.0184,-0.0456,-0.0762,-0.0849,-0.0996,-0.0687,-0.0645,-0.0605,-0.065,-0.1014,-0.1015,-0.1415,-0.1421,-0.1425]}],[{"header":{"parameterUnit":"m.s-1","parameterCategory":2,"la1":30.2991,"la2":30.254,"lo1":-89.0895,"lo2":-89.0444,"dx":0.0017,"dy":0.0017,"nx":28,"ny":28,"refTime":"2023-02-12T09:00:00:Z","depth":"2","parameterNumber":2,"parameterNumberName":"U-component_of_CURRENTS"},"data":[0,0,0,0,0,0,0,0,0,0,0,0,0,0,0,0,0,0,0,0,0,0,0,0,0,0,0,0,0,0,0,0,0,0,0,0,0,0,0,0,0,0,0,0,0,0,0,0,0,0,0,0,0,0,0,0,0,0,0.1483,0.1484,0,0.1495,0.1494,0.1494,0.1502,0.1503,0.1503,0.1503,0.1542,0.1543,0.1544,0,0,0,0,0,0,0,0,0,0,0,0,0,0.1455,0.1456,0.1483,0.1484,0.1484,0.1495,0.1494,0.1494,0.1502,0.1503,0.1503,0.1504,0.1542,0.1543,0.1544,0,0,0,0,0,0,0,0,0,0,0,0,0,0.1464,0.1456,0.1483,0.1492,0.1493,0.1495,0.1494,0.1494,0.1502,0.1503,0.1503,0.1504,0.1542,0.1543,0.1544,0.154,0,0,0.1547,0.1547,0,0,0,0,0,0,0,0,0.1464,0.1465,0.149,0.1491,0.1492,0.15,0.1499,0.1512,0.1502,0.1495,0.1503,0.1504,0.1532,0.1534,0.153,0.1542,0.1543,0.1547,0.1548,0.1548,0.1549,0,0,0,0,0,0,0,0.1463,0.1465,0.1485,0.149,0.1492,0.1491,0.1492,0.1501,0.1509,0.1496,0.1497,0.1503,0.1533,0.1529,0.1532,0.1544,0.1547,0.1548,0.1549,0.1549,0.1704,0.1707,0,0,0,0,0,0,0.1468,0.1464,0.1484,0.1485,0.1482,0.1491,0.1493,0.1495,0.1508,0.1512,0.1503,0.1504,0.1527,0.153,0.1533,0.1656,0.1548,0.1549,0.155,0.1701,0.1705,0.1709,0,0,0,0,0,0,0.1467,0.147,0.1484,0.1477,0.148,0.1491,0.1493,0.1495,0.152,0.1514,0.1517,0.153,0.1528,0.1532,0.1586,0.1653,0.155,0.1551,0.1697,0.1702,0.1707,0.1822,0,0,0,0,0,0,0.1466,0.1469,0.148,0.1478,0.148,0.1507,0.1493,0.1495,0.1522,0.1524,0.1538,0.154,0.1528,0.1585,0.1587,0.1653,0.1552,0.1692,0.1699,0.1705,0.1814,0.183,0.1845,0,0,0,0,0,0.1465,0.1476,0.148,0.1483,0.1492,0.1508,0.151,0.1517,0.1523,0.154,0.1566,0.1541,0.1628,0.1588,0.159,0.1658,0.1689,0.1697,0.1705,0.1807,0.1827,0.1844,0,0,0,0,0,0,0.1469,0.1478,0.1482,0.1496,0.1513,0.1512,0.153,0.1536,0.1566,0.1582,0.1573,0.1578,0.1654,0.1642,0.1598,0.1726,0.166,0.1668,0.1737,0.1756,0.1771,0.1774,0.1552,0,0,0,0,0,0.1475,0.1488,0.1498,0.1513,0.1525,0.1534,0.1546,0.1557,0.1578,0.1592,0.161,0.1642,0.1683,0.1707,0.1731,0.1791,0.1819,0.1842,0.1858,0.1871,0.1878,0.198,0.2005,0.1734,0.1734,0.1734,0,0,0.1479,0.1489,0.1495,0.1516,0.1529,0.1558,0.1543,0.1577,0.1617,0.1593,0.1667,0.1692,0.1711,0.1787,0.1821,0.1788,0.1972,0.1881,0.1892,0.1892,0.1991,0.2017,0.204,0.174,0.1739,0.1738,0,0,0.1493,0.1509,0.1524,0.1547,0.1581,0.1594,0.1613,0.1642,0.1674,0.1739,0.175,0.1817,0.1865,0.1902,0.1923,0.2037,0.2048,0.2059,0.2142,0.2242,0.2264,0.2284,0.2389,0.2418,0.207,0.207,0.207,0,0.1501,0.1521,0.1533,0.1562,0.1591,0.1617,0.1653,0.169,0.174,0.1785,0.1783,0.1909,0.192,0.2026,0.2075,0.2072,0.2136,0.2065,0.2262,0.2282,0.23,0.2402,0.2432,0.2077,0.2076,0.2075,0.2075,0,0.1521,0.1552,0.157,0.1616,0.1651,0.1691,0.1743,0.1801,0.185,0.189,0.2014,0.2049,0.2127,0.2155,0.2149,0.23,0.2309,0.2266,0.2209,0.2335,0.2435,0.2464,0.2086,0.2084,0.2082,0.208,0,0,0.1504,0.1569,0.158,0.1612,0.1688,0.1714,0.1809,0.1892,0.1965,0.2048,0.2155,0.2246,0.2285,0.2314,0.2337,0.2423,0.2619,0.2417,0.2419,0.2514,0.2874,0.281,0.2835,0.2625,0.2629,0.2633,0.2903,0,0.1521,0.1571,0.1612,0.1685,0.1719,0.1792,0.1874,0.1964,0.2048,0.2162,0.2249,0.2355,0.2343,0.2406,0.2499,0.258,0.2697,0.2551,0.2744,0.275,0.2671,0.2867,0.243,0.2627,0.2931,0.2936,0.2939,0,0.1527,0.1563,0.1626,0.1722,0.1748,0.1809,0.1949,0.2025,0.2188,0.2267,0.2399,0.2467,0.2631,0.2589,0.2825,0.2744,0.2835,0.2889,0.29,0.2814,0.274,0.2545,0.2668,0.2987,0.2983,0.298,0.2977,0,0.1492,0.1577,0.1627,0.166,0.1772,0.184,0.1916,0.2064,0.2145,0.2349,0.2442,0.2625,0.2732,0.2879,0.301,0.2948,0.326,0.3174,0.3211,0.3208,0.2856,0.2813,0.3364,0.3364,0.3363,0.3363,0.3362,0,0.1487,0.153,0.1619,0.1649,0.1734,0.1827,0.1946,0.2054,0.2219,0.2335,0.2499,0.2638,0.2813,0.2995,0.3098,0.3271,0.3348,0.3279,0.3291,0.2888,0.2847,0.3146,0.3118,0.3373,0.3371,0.3369,0.3367,0,0.1442,0.1498,0.1559,0.1677,0.1718,0.1783,0.1938,0.2017,0.2196,0.2359,0.2438,0.2689,0.2959,0.3135,0.3385,0.3372,0.3538,0.3577,0.3106,0.3056,0.3398,0.3372,0.3651,0.3652,0.3652,0.3652,0.3653,0,0.1421,0.1444,0.1554,0.1586,0.1646,0.175,0.182,0.1993,0.2087,0.2388,0.2469,0.2781,0.2994,0.3351,0.3325,0.3503,0.3674,0.3269,0.3051,0.3454,0.3437,0.341,0.3385,0.2649,0.2641,0.2634,0.2629,0,0.1372,0.1416,0.1459,0.1519,0.1589,0.1667,0.1791,0.1861,0.208,0.2249,0.2505,0.2704,0.2959,0.2954,0.316,0.3182,0.3193,0.3144,0.3719,0.2639,0.2529,0.2505,0.2509,0.2571,0.2577,0.2581,0.2584,0.2586,0.1327,0.1335,0.1379,0.1439,0.1501,0.1568,0.1628,0.1775,0.1927,0.2163,0.2407,0.2577,0.2594,0.2661,0.272,0.2704,0.2879,0.2784,0.2795,0.2815,0.2647,0.2542,0.2557,0.2562,0.2567,0.2571,0.2575,0,0.1243,0.1257,0.129,0.1344,0.1369,0.1457,0.1583,0.1637,0.1794,0.1964,0.2194,0.2006,0.2081,0.222,0.2008,0.2053,0.1923,0.211,0.1891,0.1945,0.1994,0.1777,0.1461,0.146,0.1459,0.1459,0,0,0.119,0.1175,0.1191,0.1193,0.1246,0.1291,0.136,0.1465,0.1548,0.1601,0.1621,0.1861,0.1935,0.1595,0.1597,0.1527,0.172,0.146,0.2305,0.2081,0.2129,0.2296,0.2013,0,0,0,0,0]},{"header":{"parameterUnit":"m.s-1","parameterCategory":2,"la1":30.2991,"la2":30.254,"lo1":-89.0895,"lo2":-89.0444,"dx":0.0017,"dy":0.0017,"nx":28,"ny":28,"refTime":"2023-02-12T09:00:00:Z","depth":"2","parameterNumber":3,"parameterNumberName":"V-component_of_CURRENTS"},"data":[0,0,0,0,0,0,0,0,0,0,0,0,0,0,0,0,0,0,0,0,0,0,0,0,0,0,0,0,0,0,0,0,0,0,0,0,0,0,0,0,0,0,0,0,0,0,0,0,0,0,0,0,0,0,0,0,0,0,-0.0412,-0.0414,0,-0.057,-0.0572,-0.0573,-0.0692,-0.0693,-0.0695,-0.0696,-0.0921,-0.0926,-0.0931,0,0,0,0,0,0,0,0,0,0,0,0,0,-0.0205,-0.0208,-0.0412,-0.0414,-0.0416,-0.057,-0.0572,-0.0574,-0.0692,-0.0694,-0.0695,-0.0696,-0.092,-0.0925,-0.0931,0,0,0,0,0,0,0,0,0,0,0,0,0,-0.032,-0.0209,-0.0412,-0.0495,-0.0504,-0.0569,-0.0572,-0.0574,-0.0692,-0.0694,-0.0695,-0.0697,-0.0918,-0.0925,-0.0932,-0.0939,0,0,-0.0954,-0.0957,0,0,0,0,0,0,0,0,-0.0313,-0.0327,-0.0481,-0.049,-0.05,-0.0615,-0.0582,-0.07,-0.0691,-0.0618,-0.0696,-0.0698,-0.0825,-0.084,-0.0862,-0.0949,-0.0959,-0.0955,-0.0959,-0.0962,-0.0964,0,0,0,0,0,0,0,-0.0305,-0.0321,-0.0473,-0.0483,-0.0495,-0.0522,-0.0541,-0.0604,-0.0709,-0.0625,-0.0634,-0.0655,-0.0831,-0.0854,-0.0868,-0.0962,-0.0955,-0.0961,-0.0965,-0.0968,-0.1157,-0.1158,0,0,0,0,0,0,-0.0289,-0.0314,-0.0468,-0.0477,-0.0412,-0.0525,-0.0545,-0.0575,-0.0707,-0.0729,-0.0653,-0.066,-0.0841,-0.086,-0.0877,-0.0934,-0.0962,-0.0969,-0.0973,-0.1156,-0.1157,-0.1158,0,0,0,0,0,0,-0.0284,-0.0301,-0.0461,-0.04,-0.0423,-0.0527,-0.0559,-0.0577,-0.0632,-0.0728,-0.0751,-0.0693,-0.0843,-0.0866,-0.0951,-0.0942,-0.0972,-0.0979,-0.1156,-0.1157,-0.1157,-0.1021,0,0,0,0,0,0,-0.0277,-0.0298,-0.0323,-0.0399,-0.0426,-0.0509,-0.0558,-0.0579,-0.0641,-0.0652,-0.077,-0.0791,-0.0847,-0.094,-0.0958,-0.0952,-0.0985,-0.1155,-0.1156,-0.1157,-0.1025,-0.1018,-0.1011,0,0,0,0,0,-0.0269,-0.029,-0.0323,-0.0343,-0.0453,-0.0509,-0.0525,-0.0603,-0.0641,-0.0661,-0.0741,-0.0789,-0.0961,-0.0946,-0.0968,-0.0963,-0.1154,-0.1156,-0.1157,-0.1028,-0.1019,-0.1012,0,0,0,0,0,0,-0.0217,-0.0307,-0.0344,-0.0394,-0.0452,-0.0531,-0.0562,-0.061,-0.0688,-0.0708,-0.0796,-0.0822,-0.0893,-0.0955,-0.0936,-0.1026,-0.1066,-0.1072,-0.0961,-0.0953,-0.0947,-0.0897,-0.0991,0,0,0,0,0,-0.0213,-0.0254,-0.0335,-0.0375,-0.0405,-0.0485,-0.0523,-0.0571,-0.0645,-0.0683,-0.076,-0.0845,-0.0909,-0.0953,-0.1023,-0.1071,-0.1089,-0.1087,-0.108,-0.1073,-0.1051,-0.107,-0.1061,-0.1163,-0.1163,-0.1163,0,0,-0.0203,-0.0259,-0.0284,-0.0367,-0.0421,-0.0442,-0.0513,-0.0569,-0.0583,-0.0693,-0.0748,-0.0828,-0.092,-0.0969,-0.1007,-0.1023,-0.1053,-0.1075,-0.1068,-0.1049,-0.107,-0.106,-0.105,-0.1164,-0.1164,-0.1163,0,0,-0.0179,-0.0253,-0.027,-0.0311,-0.0388,-0.043,-0.0447,-0.0531,-0.0573,-0.0631,-0.0707,-0.0775,-0.0889,-0.0932,-0.0972,-0.0973,-0.1017,-0.1014,-0.0934,-0.0953,-0.0943,-0.0935,-0.0921,-0.0913,-0.1008,-0.1008,-0.1007,0,-0.0166,-0.0195,-0.028,-0.0296,-0.0317,-0.0418,-0.0415,-0.0466,-0.0564,-0.0577,-0.0639,-0.0768,-0.0858,-0.0884,-0.0894,-0.0951,-0.0963,-0.0948,-0.0937,-0.093,-0.0923,-0.0912,-0.0904,-0.1001,-0.1002,-0.1003,-0.1003,0,-0.0138,-0.0166,-0.0178,-0.0225,-0.0257,-0.0277,-0.0344,-0.038,-0.0444,-0.0487,-0.0545,-0.0658,-0.0726,-0.0773,-0.084,-0.0841,-0.0863,-0.092,-0.094,-0.0903,-0.0895,-0.089,-0.0992,-0.0994,-0.0996,-0.0998,0,0,-0.0089,-0.0145,-0.0149,-0.0142,-0.0217,-0.0229,-0.0249,-0.0276,-0.0266,-0.0374,-0.0354,-0.049,-0.0552,-0.0602,-0.0692,-0.0721,-0.0698,-0.0799,-0.0803,-0.0751,-0.0711,-0.0696,-0.0689,-0.0753,-0.0752,-0.0751,-0.0712,0,-0.0038,-0.0027,-0.0073,-0.0048,-0.0041,-0.0112,-0.0106,-0.0145,-0.0198,-0.0207,-0.0312,-0.0352,-0.0486,-0.0516,-0.0564,-0.067,-0.0682,-0.0701,-0.0784,-0.0785,-0.0749,-0.0682,-0.072,-0.0687,-0.0707,-0.0706,-0.0706,0,0.0016,0.0018,0.0053,0.0066,0.0064,0.0066,0.0076,0.0066,0.0026,-0.0013,-0.007,-0.0159,-0.0223,-0.0344,-0.0467,-0.0475,-0.0575,-0.0656,-0.0658,-0.0684,-0.076,-0.0737,-0.0676,-0.0697,-0.0698,-0.0698,-0.0699,0,0.0117,0.0116,0.0156,0.0153,0.0142,0.0159,0.0155,0.0126,0.0142,0.0111,0.0124,0.0021,-0.0023,-0.016,-0.0352,-0.0409,-0.0462,-0.0562,-0.0627,-0.0626,-0.0693,-0.07,-0.0618,-0.0618,-0.0618,-0.0618,-0.0618,0,0.0201,0.0236,0.0206,0.023,0.03,0.0256,0.032,0.0302,0.0303,0.0353,0.0228,0.0257,0.0014,-0.0063,-0.025,-0.0395,-0.0382,-0.0576,-0.0607,-0.0647,-0.065,-0.0705,-0.0716,-0.0617,-0.0617,-0.0617,-0.0618,0,0.031,0.0282,0.0335,0.0337,0.0345,0.0393,0.0418,0.0473,0.0449,0.0518,0.0516,0.044,0.0344,0.0134,-0.0065,-0.0248,-0.0398,-0.0453,-0.0463,-0.0496,-0.0574,-0.0579,-0.0515,-0.0514,-0.0513,-0.0513,-0.0512,0,0.0374,0.0406,0.0422,0.0452,0.0452,0.0503,0.0551,0.0544,0.0604,0.064,0.0703,0.0637,0.0645,0.0394,0.0035,-0.0226,-0.0295,-0.0432,-0.056,-0.0522,-0.056,-0.0566,-0.0572,-0.0593,-0.0593,-0.0594,-0.0594,0,0.0503,0.0488,0.0522,0.0579,0.0626,0.0704,0.0765,0.0839,0.0855,0.0933,0.1038,0.1061,0.0789,0.0493,0.011,-0.009,-0.04,-0.0441,-0.0386,-0.061,-0.0592,-0.0631,-0.0635,-0.0594,-0.0594,-0.0594,-0.0594,-0.0594,0.0587,0.063,0.0651,0.0713,0.0774,0.0892,0.0979,0.1082,0.1224,0.1366,0.135,0.1315,0.0865,0.0346,0.0054,-0.0328,-0.0351,-0.0537,-0.0539,-0.054,-0.0552,-0.0534,-0.0525,-0.0525,-0.0524,-0.0524,-0.0524,0,0.0675,0.0704,0.0783,0.0851,0.0944,0.0948,0.1115,0.1244,0.1443,0.1499,0.1627,0.1166,0.0864,0.0387,-0.0203,-0.0495,-0.0538,-0.056,-0.0606,-0.0605,-0.0604,-0.0622,-0.0612,-0.0612,-0.0612,-0.0613,0,0,0.072,0.079,0.0827,0.0979,0.1027,0.1172,0.1272,0.1498,0.1554,0.1634,0.1498,0.1469,0.0781,0.0337,-0.0062,-0.0351,-0.0388,-0.0378,-0.0295,-0.0305,-0.0299,-0.0598,-0.0624,0,0,0,0,0]}],[{"header":{"parameterUnit":"m.s-1","parameterCategory":2,"la1":30.2991,"la2":30.254,"lo1":-89.0895,"lo2":-89.0444,"dx":0.0017,"dy":0.0017,"nx":28,"ny":28,"refTime":"2023-02-12T09:00:00:Z","depth":"4","parameterNumber":2,"parameterNumberName":"U-component_of_CURRENTS"},"data":[0,0,0,0,0,0,0,0,0,0,0,0,0,0,0,0,0,0,0,0,0,0,0,0,0,0,0,0,0,0,0,0,0,0,0,0,0,0,0,0,0,0,0,0,0,0,0,0,0,0,0,0,0,0,0,0,0,0,0.027,0.027,0,0.0389,0.0391,0.0393,0.0545,0.0547,0.0548,0.055,0.0783,0.0788,0.0793,0,0,0,0,0,0,0,0,0,0,0,0,0,0.0196,0.0198,0.027,0.027,0.0271,0.0388,0.0391,0.0394,0.0545,0.0547,0.0549,0.055,0.0782,0.0787,0.0793,0,0,0,0,0,0,0,0,0,0,0,0,0,0.0273,0.0198,0.027,0.0353,0.036,0.0388,0.0391,0.0394,0.0545,0.0547,0.0549,0.0551,0.078,0.0787,0.0794,0.0796,0,0,0.0816,0.0819,0,0,0,0,0,0,0,0,0.0269,0.0278,0.034,0.0347,0.0355,0.0445,0.045,0.053,0.0544,0.0486,0.055,0.0552,0.0672,0.0688,0.072,0.0807,0.0817,0.0817,0.0821,0.0825,0.0827,0,0,0,0,0,0,0,0.0263,0.0273,0.0328,0.034,0.0349,0.039,0.0405,0.0467,0.0576,0.0492,0.05,0.0495,0.0679,0.0712,0.0726,0.082,0.0817,0.0823,0.0828,0.0831,0.1059,0.106,0,0,0,0,0,0,0.0223,0.0268,0.0324,0.0331,0.0304,0.0389,0.0406,0.0423,0.0573,0.0594,0.0493,0.0501,0.0699,0.0718,0.0735,0.091,0.0824,0.0831,0.0836,0.1057,0.1059,0.1061,0,0,0,0,0,0,0.0221,0.0228,0.0319,0.0292,0.0305,0.0386,0.0406,0.0424,0.0527,0.0571,0.0597,0.0583,0.0701,0.0725,0.0877,0.0914,0.0835,0.0841,0.1055,0.1058,0.106,0.1155,0,0,0,0,0,0,0.0219,0.0227,0.0241,0.029,0.0305,0.0381,0.0403,0.0424,0.051,0.0525,0.0655,0.0675,0.0705,0.0866,0.0884,0.0923,0.0847,0.1053,0.1056,0.1059,0.1149,0.116,0.1169,0,0,0,0,0,0.0217,0.0229,0.0242,0.0248,0.0317,0.0382,0.0398,0.0468,0.0513,0.057,0.0678,0.0675,0.0896,0.0876,0.0896,0.0937,0.1051,0.1055,0.1059,0.1145,0.1158,0.1169,0,0,0,0,0,0,0.0214,0.0246,0.0261,0.0286,0.0344,0.0405,0.0448,0.0503,0.0632,0.0675,0.0732,0.076,0.0892,0.0904,0.088,0.1005,0.0958,0.0966,0.1016,0.1029,0.1039,0.1033,0.0853,0,0,0,0,0,0.0208,0.0229,0.0274,0.0299,0.033,0.0403,0.0444,0.0509,0.0606,0.0668,0.077,0.0853,0.0907,0.0968,0.1029,0.1124,0.1093,0.1149,0.1159,0.1168,0.1175,0.1153,0.1161,0.1073,0.1073,0.1073,0,0,0.0205,0.0227,0.0238,0.0298,0.0351,0.0436,0.0441,0.0536,0.0647,0.067,0.0884,0.0911,0.0942,0.1047,0.1102,0.1078,0.118,0.1173,0.118,0.1182,0.1158,0.1166,0.1173,0.1076,0.1075,0.1075,0,0,0.0225,0.0246,0.0284,0.0343,0.0428,0.0486,0.053,0.0654,0.0753,0.0924,0.0946,0.1012,0.1155,0.1163,0.1178,0.1277,0.1233,0.1284,0.1343,0.1323,0.133,0.1335,0.1318,0.1321,0.129,0.129,0.129,0,0.0228,0.0291,0.0308,0.0381,0.045,0.0524,0.063,0.0727,0.0905,0.0978,0.1019,0.1163,0.12,0.1251,0.1284,0.13,0.1281,0.1299,0.1335,0.134,0.1344,0.1325,0.1327,0.1295,0.1294,0.1294,0.1293,0,0.0287,0.0361,0.0397,0.0516,0.0594,0.0699,0.0819,0.095,0.1074,0.1149,0.1281,0.132,0.1381,0.1386,0.1381,0.1407,0.1383,0.1349,0.1303,0.1358,0.1335,0.1336,0.1302,0.13,0.1299,0.1298,0,0,0.026,0.041,0.0436,0.0526,0.0693,0.0768,0.0951,0.1108,0.1214,0.1357,0.1469,0.1531,0.1513,0.1524,0.1493,0.1478,0.1493,0.1436,0.1433,0.1418,0.1454,0.1319,0.1306,0.1464,0.1464,0.1465,0.1431,0,0.0327,0.0468,0.0552,0.0744,0.0838,0.0971,0.1122,0.1268,0.1392,0.1519,0.153,0.1618,0.1573,0.1589,0.1568,0.1515,0.1497,0.1505,0.1405,0.1402,0.1273,0.1303,0.1466,0.1431,0.1431,0.1431,0.1431,0,0.038,0.0473,0.0661,0.0862,0.0921,0.1075,0.1303,0.1435,0.1578,0.1658,0.1704,0.1716,0.1724,0.1673,0.1609,0.1618,0.1549,0.1497,0.1494,0.1332,0.1267,0.1361,0.1431,0.1431,0.1431,0.1431,0.1431,0,0.035,0.0559,0.0721,0.0797,0.1031,0.1186,0.1324,0.1498,0.1594,0.1732,0.1787,0.1799,0.1815,0.1739,0.1623,0.1635,0.1522,0.1523,0.1334,0.1325,0.1415,0.1409,0.1467,0.1467,0.1467,0.1467,0.1467,0,0.0392,0.0512,0.0743,0.0839,0.1045,0.1206,0.1416,0.154,0.1681,0.1734,0.1837,0.179,0.1833,0.1763,0.1651,0.1473,0.1539,0.1346,0.1303,0.1458,0.1457,0.1415,0.141,0.1466,0.1466,0.1466,0.1466,0,0.0347,0.0489,0.0669,0.0946,0.1048,0.1195,0.1456,0.1546,0.1707,0.1775,0.1816,0.1829,0.1712,0.1703,0.157,0.1502,0.1348,0.1256,0.1423,0.1389,0.1175,0.1176,0.1107,0.1102,0.1097,0.1094,0.1091,0,0.0345,0.0438,0.0717,0.0825,0.099,0.1214,0.1339,0.1539,0.1586,0.1687,0.1653,0.1649,0.1619,0.1345,0.131,0.1183,0.1132,0.1144,0.1179,0.1172,0.1137,0.1144,0.115,0.1084,0.1083,0.1081,0.108,0,0.0341,0.0449,0.0595,0.0789,0.0976,0.1102,0.1284,0.1284,0.1443,0.1623,0.1474,0.1426,0.1297,0.1169,0.1129,0.0987,0.1207,0.1099,0.1109,0.1142,0.1143,0.1115,0.1126,0.1065,0.1067,0.1069,0.107,0,0.0337,0.0392,0.0576,0.0741,0.0937,0.0962,0.1042,0.1092,0.1159,0.1308,0.1178,0.1144,0.1195,0.1047,0.0906,0.0882,0.0879,0.0921,0.0941,0.0958,0.0922,0.0903,0.0711,0,0,0,0,0,0.0328,0.0355,0.0496,0.0654,0.0835,0.0916,0.1004,0.1047,0.1179,0.1062,0.1156,0.1004,0.0899,0.0794,0.073,0.0793,0.0859,0.072,0.0912,0.0982,0.0999,0.097,0,0,0,0,0,0,0.0302,0.0419,0.0453,0.0585,0.0658,0.0784,0.0803,0.0842,0.0763,0.0905,0.0784,0.1005,0.0823,0.0938,0.0729,0.0729,0.0842,0.0745,0.0744,0.0972,0.0988,0.1002,0.0978,0,0,0,0,0]},{"header":{"parameterUnit":"m.s-1","parameterCategory":2,"la1":30.2991,"la2":30.254,"lo1":-89.0895,"lo2":-89.0444,"dx":0.0017,"dy":0.0017,"nx":28,"ny":28,"refTime":"2023-02-12T09:00:00:Z","depth":"4","parameterNumber":3,"parameterNumberName":"V-component_of_CURRENTS"},"data":[0,0,0,0,0,0,0,0,0,0,0,0,0,0,0,0,0,0,0,0,0,0,0,0,0,0,0,0,0,0,0,0,0,0,0,0,0,0,0,0,0,0,0,0,0,0,0,0,0,0,0,0,0,0,0,0,0,0,0.0577,0.0577,0,0.0583,0.0583,0.0584,0.0683,0.0685,0.0687,0.0688,0.0611,0.0607,0.0604,0,0,0,0,0,0,0,0,0,0,0,0,0,0.0605,0.0605,0.0577,0.0577,0.0576,0.0583,0.0583,0.0584,0.0683,0.0685,0.0687,0.0689,0.0612,0.0608,0.0603,0,0,0,0,0,0,0,0,0,0,0,0,0,0.0607,0.0605,0.0577,0.062,0.0623,0.0582,0.0583,0.0585,0.0682,0.0685,0.0688,0.069,0.0614,0.0608,0.0603,0.0514,0,0,0.0586,0.0583,0,0,0,0,0,0,0,0,0.0607,0.0607,0.0614,0.0617,0.062,0.0628,0.0565,0.0554,0.0681,0.0668,0.0688,0.0691,0.0602,0.0597,0.0605,0.051,0.0507,0.0585,0.0582,0.0579,0.0578,0,0,0,0,0,0,0,0.0607,0.0607,0.0587,0.0613,0.0617,0.0622,0.0627,0.0564,0.0624,0.0669,0.0675,0.0662,0.0604,0.061,0.0603,0.0506,0.0585,0.058,0.0577,0.0575,0.0345,0.0342,0,0,0,0,0,0,0.059,0.0607,0.0587,0.0587,0.0611,0.0619,0.0625,0.0629,0.0627,0.0627,0.066,0.0666,0.0618,0.061,0.0601,0.0514,0.0579,0.0574,0.0571,0.0347,0.0344,0.0341,0,0,0,0,0,0,0.059,0.0588,0.0587,0.059,0.0589,0.0615,0.062,0.0628,0.0676,0.0619,0.062,0.0703,0.062,0.0609,0.057,0.0511,0.0571,0.0566,0.0351,0.0346,0.0342,0.0326,0,0,0,0,0,0,0.0592,0.0589,0.0598,0.0589,0.0588,0.0581,0.0617,0.0626,0.0657,0.0667,0.0654,0.0649,0.0621,0.0579,0.0565,0.0504,0.0562,0.0354,0.0349,0.0344,0.033,0.0322,0.0315,0,0,0,0,0,0.0593,0.0592,0.0599,0.0597,0.0597,0.058,0.0582,0.0614,0.0657,0.0671,0.0663,0.0651,0.0535,0.0573,0.0557,0.0493,0.0357,0.035,0.0344,0.0333,0.0323,0.0315,0,0,0,0,0,0,0.0614,0.0601,0.0609,0.0608,0.06,0.0595,0.0606,0.0629,0.0639,0.0663,0.0632,0.0623,0.0557,0.0528,0.0571,0.0408,0.0435,0.0426,0.0432,0.0423,0.0415,0.042,0.0557,0,0,0,0,0,0.0615,0.0614,0.0599,0.0598,0.0599,0.0611,0.0615,0.0638,0.0633,0.0648,0.0624,0.0582,0.0507,0.0478,0.0419,0.034,0.032,0.0281,0.0273,0.0267,0.0257,0.0183,0.0169,0.0321,0.0321,0.0321,0,0,0.0619,0.061,0.0611,0.0601,0.0607,0.0603,0.0625,0.0641,0.0637,0.0626,0.0618,0.0562,0.0483,0.0395,0.036,0.0372,0.0214,0.0259,0.0255,0.0248,0.0176,0.0161,0.0148,0.0317,0.0317,0.0318,0,0,0.0616,0.0626,0.0626,0.0621,0.0622,0.0619,0.0631,0.0635,0.0645,0.0607,0.0584,0.051,0.0419,0.0343,0.029,0.0201,0.0181,0.0167,0.0127,0.0056,0.0044,0.0033,0.0004,-0.001,0.0159,0.0159,0.0159,0,0.0625,0.0625,0.0621,0.0619,0.0615,0.0631,0.0634,0.0627,0.0616,0.0586,0.0605,0.0435,0.0383,0.0242,0.0205,0.0182,0.0157,0.0176,0.0049,0.0037,0.0026,-0.0001,-0.0016,0.0157,0.0158,0.0158,0.0158,0,0.0614,0.0627,0.0627,0.0627,0.0619,0.0627,0.0607,0.0602,0.0601,0.0565,0.0455,0.0374,0.0266,0.0216,0.0179,0.0044,0.0059,0.0058,0.0084,0.0011,-0.0014,-0.0029,0.0155,0.0156,0.0156,0.0157,0,0,0.0608,0.062,0.0628,0.0635,0.0633,0.0626,0.0601,0.0556,0.0531,0.047,0.0397,0.0242,0.0196,0.0131,0.0064,-0.0013,-0.0111,-0.0016,-0.0019,-0.0025,-0.0244,-0.0195,-0.0206,-0.0132,-0.0135,-0.0138,-0.0222,0,0.061,0.0617,0.0618,0.0626,0.0625,0.062,0.0588,0.0545,0.0495,0.0423,0.0305,0.0217,0.0164,0.0111,0.0012,-0.0084,-0.0155,-0.0087,-0.0191,-0.0194,-0.0126,-0.0225,-0.0148,-0.0233,-0.0236,-0.0239,-0.0241,0,0.0597,0.0605,0.063,0.0621,0.0623,0.0638,0.059,0.0557,0.0445,0.0398,0.0272,0.0196,0.0039,0.0036,-0.0173,-0.0126,-0.0194,-0.0252,-0.0256,-0.0218,-0.0175,-0.0154,-0.0268,-0.0266,-0.0264,-0.0262,-0.026,0,0.0589,0.0603,0.0634,0.0638,0.0637,0.0651,0.0638,0.0556,0.0522,0.0393,0.0359,0.0156,0.0088,-0.0062,-0.0203,-0.0191,-0.0396,-0.0384,-0.0401,-0.0396,-0.0399,-0.0387,-0.0516,-0.0516,-0.0515,-0.0515,-0.0515,0,0.0576,0.059,0.0654,0.0678,0.0694,0.0676,0.0673,0.0618,0.0545,0.0486,0.0361,0.0252,0.0063,-0.0079,-0.0214,-0.0361,-0.0407,-0.0431,-0.0434,-0.0402,-0.039,-0.0408,-0.0394,-0.0518,-0.0518,-0.0517,-0.0516,0,0.0554,0.0598,0.0635,0.0687,0.0708,0.0719,0.0737,0.071,0.0654,0.0579,0.0551,0.0331,0.0138,-0.0021,-0.026,-0.0337,-0.0496,-0.0523,-0.0462,-0.0456,-0.0439,-0.0426,-0.056,-0.0559,-0.0559,-0.0559,-0.0558,0,0.0541,0.0573,0.0674,0.0705,0.0752,0.0782,0.0798,0.0765,0.0735,0.0593,0.0544,0.0367,0.0216,-0.0101,-0.0277,-0.0482,-0.0498,-0.0545,-0.0525,-0.0464,-0.0454,-0.0441,-0.0429,-0.0557,-0.0557,-0.0557,-0.0557,0,0.0524,0.0595,0.0647,0.0721,0.0783,0.0801,0.0825,0.0793,0.0733,0.0741,0.051,0.0329,0.0128,-0.0136,-0.025,-0.0421,-0.0511,-0.054,-0.0542,-0.0524,-0.0463,-0.045,-0.0438,-0.0555,-0.0556,-0.0556,-0.0556,0,0.0536,0.0554,0.0655,0.07,0.0792,0.0777,0.0768,0.0725,0.069,0.0581,0.0478,0.0249,0.0128,-0.0108,-0.0272,-0.0372,-0.0395,-0.0417,-0.0426,-0.0429,-0.0359,-0.026,-0.0319,0,0,0,0,0,0.0526,0.053,0.0593,0.0651,0.0759,0.079,0.0776,0.0753,0.0731,0.0594,0.0544,0.0344,0.0078,-0.0105,-0.0198,-0.0253,-0.0403,-0.0363,-0.0431,-0.0546,-0.0548,-0.0483,0,0,0,0,0,0,0.0498,0.0566,0.0575,0.0646,0.0683,0.0752,0.0728,0.0681,0.0582,0.0543,0.037,0.0383,0.0092,0.0171,-0.0174,-0.021,-0.0258,-0.0458,-0.046,-0.0545,-0.0547,-0.0548,-0.0483,0,0,0,0,0]}]]